• Processing (Info)

  • MPEC 1996-A14 : 1995 DC2

    The following Minor Planet Electronic Circular may be linked-to from your own Web pages, but must not otherwise be redistributed electronically.

    A form allowing access to any MPEC is at the bottom of this page.


    Read MPEC 1996-A13 Read MPEC 1996-A15


    M.P.E.C. 1996-A14                                Issued 1996 Jan.  9, 03:53 UT
    
         The Minor Planet Electronic Circulars contain information on unusual
             minor planets and routine data on comets.  They are published
       on behalf of Commission 20 of the International Astronomical Union by the
              Minor Planet Center, Smithsonian Astrophysical Observatory,
                              Cambridge, MA 02138, U.S.A.
    
                 BMARSDEN@CFA.HARVARD.EDU or GWILLIAMS@CFA.HARVARD.EDU
    
                                       1995 DC2
    
                               Revision to MPEC 1995-G06
    
    Observations:
         J95D02C  C1995 12 23.51505 10 27 47.10 +09 37 39.4                      568
         J95D02C  C1995 12 23.54509 10 27 47.03 +09 37 39.8                      568
         J95D02C  C1995 12 23.57388 10 27 46.98 +09 37 40.1                      568
         J95D02C  C1995 12 24.50699 10 27 45.57 +09 37 48.7                      568
         J95D02C  C1995 12 24.54705 10 27 45.49 +09 37 49.1                      568
    
    Observer details:
    568 Mauna Kea.  Observers J. Chen, D. Jewitt.  2.2-m University of Hawaii
        telescope.
    
    First and last observations above in comparison with prediction:
    Residuals in seconds of arc
    951223 568 83.5- 42.5+    951224 568 83.7- 42.5+    MPC 25184
    
    Orbital elements:
    1995 DC2
    Eccentricity assumed
    Epoch 1996 Apr. 27.0 TT = JDT 2450200.5                 Marsden
    M 254.59523              (2000.0)            P               Q
    n   0.00338192     Peri.  115.09297     -0.01226847     +0.99976845
    a  43.9569316      Node   154.18545     -0.93141737     -0.00499463
    e   0.0886803      Incl.    2.32672     -0.36374602     -0.02093093
    P 291.43           H    7.0           G   0.15
    Residuals in seconds of arc
    950224 568  0.3+  1.0+    950401 950  0.2-  0.1-    950407 809  0.1-  0.3-
    950224 568  0.2+  1.3+    950402 950  0.2-  0.2-    950407 809  0.3-  0.4-
    950224 568  0.4+  1.2+    950405 568  0.7-  0.3-    950407 809  0.2-  0.5-
    950224 568  0.1+  1.1+    950405 568  0.5-  0.2-    950407 809  0.2-  0.5-
    950224 568  0.1+  1.2+    950405 568  0.4-  0.2-    950407 809  0.4-  0.3-
    950226 568  0.4+  0.3+    950406 809  0.4+  0.3-    950407 809  0.1-  0.3-
    950226 568  0.4+  0.6+    950406 809  0.3+  0.3-    950407 809  0.0   0.5-
    950226 568  0.6+  0.4+    950406 809  0.1+  0.4-    951223 568  0.2+  0.2+
    950324 568  0.2+  0.7-    950406 809  0.1+  0.3-    951223 568  0.1-  0.3+
    950324 568  0.2+  0.7-    950406 809  0.2+  0.3-    951223 568  0.2-  0.3+
    950330 413  0.3+  0.1+    950406 568  0.6-  0.3-    951224 568  0.3+  0.1+
    950330 413  0.6+  0.0     950406 568  1.2-  0.3-    951224 568  0.1+  0.1+
    950401 950  0.0   0.2-    950406 809  0.1-  0.5-
    
    Ephemeris:
    1995 DC2                 a,e,i = 43.96, 0.09, 2                  q = 40.059
    Date    TT    R. A. (2000) Decl.     Delta      r     Elong.  Phase     V
    1995 12 29    10 27.63   +09 38.6   44.801   45.326   121.8     1.1    23.7
    1996 01 08    10 27.24   +09 40.9   44.660   45.324   132.1     0.9    23.7
    1996 01 18    10 26.75   +09 43.9   44.539   45.322   142.4     0.8    23.7
    1996 01 28    10 26.16   +09 47.4   44.443   45.320   152.7     0.6    23.6
    1996 02 07    10 25.49   +09 51.3   44.374   45.318   163.0     0.4    23.6
    1996 02 17    10 24.79   +09 55.5   44.335   45.316   173.3     0.1    23.6
    1996 02 27    10 24.06   +09 59.7   44.326   45.314   176.4     0.1    23.5
    1996 03 08    10 23.35   +10 03.9   44.347   45.312   166.2     0.3    23.6
    1996 03 18    10 22.67   +10 07.9   44.398   45.310   156.0     0.5    23.6
    1996 03 28    10 22.05   +10 11.6   44.477   45.308   145.9     0.7    23.6
    1996 04 07    10 21.52   +10 14.7   44.581   45.306   135.9     0.9    23.7
    1996 04 17    10 21.08   +10 17.3   44.706   45.303   126.0     1.0    23.7
    1996 04 27    10 20.77   +10 19.2   44.848   45.301   116.2     1.1    23.7
    1996 05 07    10 20.58   +10 20.3   45.003   45.299   106.4     1.2    23.7
    1996 05 17    10 20.53   +10 20.7   45.167   45.297    96.8     1.3    23.7
    1996 05 27    10 20.61   +10 20.3   45.334   45.295    87.2     1.3    23.7
    1996 06 06    10 20.83   +10 19.1   45.499   45.293    77.6     1.3    23.7
    1996 06 16    10 21.18   +10 17.2   45.659   45.291    68.2     1.2    23.7
    
    Brian G. Marsden             (C) Copyright 1996 MPC           M.P.E.C. 1996-A14
    

    Read MPEC 1996-A13 Read MPEC 1996-A15


    MPEC number:

    Enter an MPEC number in one of the following forms:

    • 1997-B01 (the full form)
    • J97B01 (the packed version of the full form)
    • B01 (the abbreviated form)